Location: Haut Kerinec
(48.0623°N, 4.4081°W)
Time: 13:30:11
(UTC+00:00)

SPOT 3 Rocket - Pass Details

Date: 01 June 2020
Orbit: 780 x 794 km, 98.8° (Epoch: 13 July)

Event Time Altitude Azimuth Distance (km) Brightness Sun altitude
Rises 20:37:54 0° 172° (S) 3,251 6.3 -4.5°
Reaches altitude 10° 20:40:14 10° 176° (S) 2,329 5.6 -4.8°
Maximum altitude 20:45:19 64° 258° (WSW) 866 4.0 -5.4°
Drops below altitude 10° 20:50:29 10° 340° (NNW) 2,352 7.2 -6.1°
Sets 20:52:50 0° 343° (NNW) 3,287 8.0 -6.4°
